Hourly Data Report for November 19, 2019

All times are specified in Local Standard Time (LST). Add 1 hour to adjust for Daylight Saving Time where and when it is observed.

SEPT-ILES
QUEBEC
Current Station Operator: ECCC - MSC

50°13'00.000" N
66°15'00.000" W
52.60 m
7047914
71279
XZV

Download Data

Hourly Data (November 2019)
Hourly Data Report for November 19, 2019
TIME Temp Definition
°C
Dew Point Definition
°C
Rel Hum Definition
%
Wind Dir Definition
10's deg

Wind Spd Definition
km/h
Visibility Definition
km
Stn Press Definition
kPa
Hmdx Definition


Wind Chill Definition


Weather Definition


00:00 -6.9 -10.5 75 1 10   100.85   -12 LegendNANA
01:00 -6.7 -10.5 74 1 11   100.82   -12 LegendNANA
02:00 -6.6 -10.7 72 1 11   100.77   -12 LegendNANA
03:00 -6.4 -10.9 70 1 11   100.61   -11 LegendNANA
04:00 -6.2 -11.0 69 1 11   100.58   -11 LegendNANA
05:00 -5.9 -11.0 67 1 9   100.53   -10 LegendNANA
06:00 -5.6 -11.1 65 1 9   100.50   -10 LegendNANA
07:00 -5.1 -11.2 62 2 10   100.50   -9 LegendNANA
08:00 -4.5 -11.3 59 2 10   100.50   -9 LegendNANA
09:00 -3.6 -11.5 54 1 9   100.44   -7 LegendNANA
10:00 -2.8 -11.1 53 1 11   100.44   -7 LegendNANA
11:00 -1.7 -10.8 50 1 11   100.40   -6 LegendNANA
12:00 -0.5 -10.8 46 36 9   100.34   -4 LegendNANA
13:00 -0.3 -10.4 47 2 10   100.31   -4 LegendNANA
14:00 0.3 -10.5 44 36 9   100.28     LegendNANA
15:00 0.2 -10.4 45 36 9   100.30     LegendNANA
16:00 0.0 -10.2 46 1 9   100.32   -3 LegendNANA
17:00 -0.4 -10.4 47 1 8   100.35   -3 LegendNANA
18:00 -0.7 -10.3 48 2 9   100.44   -4 LegendNANA
19:00 -0.5 -10.4 47 2 10   100.47   -4 LegendNANA
20:00 -0.7 -10.4 48 2 10   100.52   -4 LegendNANA
21:00 -0.8 -10.5 48 1 9   100.58   -4 LegendNANA
22:00 -1.1 -10.5 49 2 9   100.65   -4 LegendNANA
23:00 -1.5 -10.8 49 3 12   100.69   -6 LegendNANA

Notes on Data Quality.

Legend

  • E = Estimated
  • M = Missing
  • NA = Not Available*
  • [empty] = Indicates an unobserved value
Date modified: